Location: *
(50.8160°S, 176.0219°W)
Time: 23:36:08
(UTC+00:00)

Spot 4 Rocket - Pass Details

Date: 19 May 2026
Orbit: 768 x 774 km, 98.8° (Epoch: 11 June)

Event Time Altitude Azimuth Distance (km) Brightness Sun altitude
Rises 18:32:42 0° 13° (NNE) 3,239 7.8 -7.5°
Reaches altitude 10° 18:35:00 10° 11° (NNE) 2,320 7.0 -7.1°
Maximum altitude 18:40:07 77° 284° (WNW) 805 4.0 -6.4°
Drops below altitude 10° 18:45:19 10° 198° (SSW) 2,352 6.1 -5.6°
Sets 18:47:40 0° 196° (SSW) 3,287 6.9 -5.3°
